2023/01/26 00:00:00,146.8,-9.9
2023/01/26 00:10:00,146.4,-9.5
2023/01/26 00:20:00,145.9,-9.1
2023/01/26 00:30:00,145.3,-10.1
2023/01/26 00:40:00,145.3,-10.2
2023/01/26 00:50:00,145.3,-10.0
2023/01/26 01:00:00,144.9,-10.3
2023/01/26 01:10:00,144.2,-10.1
2023/01/26 01:20:00,143.9,-10.3
2023/01/26 01:30:00,144.1,-10.2
2023/01/26 01:40:00,143.8,-10.4
2023/01/26 01:50:00,143.9,-10.3
2023/01/26 02:00:00,143.4,-9.9
2023/01/26 02:10:00,143.3,-10.2
2023/01/26 02:20:00,143.2,-10.0
2023/01/26 02:30:00,143.2,-9.9
2023/01/26 02:40:00,142.9,-10.1
2023/01/26 02:50:00,142.8,-9.9
2023/01/26 03:00:00,142.9,-10.6
2023/01/26 03:10:00,142.5,-10.4
2023/01/26 03:20:00,142.5,-10.4
2023/01/26 03:30:00,142.2,-10.0
2023/01/26 03:40:00,141.7,-10.0
2023/01/26 03:50:00,141.0,-10.2
2023/01/26 04:00:00,141.1,-10.2
2023/01/26 04:10:00,141.3,-9.9
2023/01/26 04:20:00,141.2,-9.9
2023/01/26 04:30:00,141.3,-9.4
2023/01/26 04:40:00,140.8,-9.1
2023/01/26 04:50:00,140.5,-9.5
2023/01/26 05:00:00,140.5,-9.1
2023/01/26 05:10:00,140.5,-9.4
2023/01/26 05:20:00,140.5,-9.4
2023/01/26 05:30:00,140.1,-9.5
2023/01/26 05:40:00,139.9,-9.4
2023/01/26 05:50:00,140.0,-9.5
2023/01/26 06:00:00,139.7,-9.5
2023/01/26 06:10:00,139.4,-9.8
2023/01/26 06:20:00,139.0,-10.0
2023/01/26 06:30:00,138.9,-9.9
2023/01/26 06:40:00,138.9,-9.6
2023/01/26 06:50:00,138.7,-9.5
2023/01/26 07:00:00,138.5,-9.3
2023/01/26 07:10:00,138.3,-9.2
2023/01/26 07:20:00,138.4,-9.1
2023/01/26 07:30:00,138.5,-8.8
2023/01/26 07:40:00,138.2,-8.7
2023/01/26 07:50:00,138.3,-8.2
2023/01/26 08:00:00,138.1,-7.7
2023/01/26 08:10:00,137.9,-7.4
2023/01/26 08:20:00,137.6,-7.4
2023/01/26 08:30:00,137.5,-7.1
2023/01/26 08:40:00,137.3,-6.5
2023/01/26 08:50:00,137.0,-6.7
2023/01/26 09:00:00,137.0,-5.8
2023/01/26 09:10:00,136.9,-5.4
2023/01/26 09:20:00,136.9,-4.3
2023/01/26 09:30:00,136.9,-3.8
2023/01/26 09:40:00,136.9,-3.0
2023/01/26 09:50:00,136.7,-2.4
2023/01/26 10:00:00,137.1,-2.4
2023/01/26 10:10:00,136.3,-2.5
2023/01/26 10:20:00,135.7,-2.0
2023/01/26 10:30:00,135.9,-1.2
2023/01/26 10:40:00,136.5,-0.4
2023/01/26 10:50:00,136.1,-0.9
2023/01/26 11:00:00,135.9,-1.1
2023/01/26 11:10:00,135.9,-1.2
2023/01/26 11:20:00,135.9,-1.4
2023/01/26 11:30:00,135.9,-1.2
2023/01/26 11:40:00,135.9,-0.6
2023/01/26 11:50:00,135.5,-1.0
2023/01/26 12:00:00,135.4,-1.0
2023/01/26 12:10:00,135.3,-1.6
2023/01/26 12:20:00,135.3,-1.2
2023/01/26 12:30:00,135.2,-0.6
2023/01/26 12:40:00,134.9,-0.4
2023/01/26 12:50:00,134.9,-0.2
2023/01/26 13:00:00,134.7,-0.7
2023/01/26 13:10:00,134.5,-0.5
2023/01/26 13:20:00,134.5,-0.5
2023/01/26 13:30:00,134.4, 0.1
2023/01/26 13:40:00,134.1,-0.2
2023/01/26 13:50:00,134.3,-0.4
2023/01/26 14:00:00,134.6,-0.4
2023/01/26 14:10:00,134.4,-0.7
2023/01/26 14:20:00,134.1,-0.9
2023/01/26 14:30:00,134.2,-1.0
2023/01/26 14:40:00,134.3,-1.5
2023/01/26 14:50:00,134.4,-1.4
2023/01/26 15:00:00,134.4,-1.5
2023/01/26 15:10:00,134.0,-1.3
2023/01/26 15:20:00,133.8,-1.3
2023/01/26 15:30:00,133.7,-1.1
2023/01/26 15:40:00,133.6,-1.7
2023/01/26 15:50:00,133.7,-1.7
2023/01/26 16:00:00,133.6,-1.9
2023/01/26 16:10:00,133.3,-1.7
2023/01/26 16:20:00,133.0,-2.2
2023/01/26 16:30:00,133.0,-2.4
2023/01/26 16:40:00,133.0,-2.5
2023/01/26 16:50:00,133.0,-2.5
2023/01/26 17:00:00,132.5,-3.2
2023/01/26 17:10:00,132.2,-3.1
2023/01/26 17:20:00,132.1,-3.2
2023/01/26 17:30:00,132.0,-3.4
2023/01/26 17:40:00,131.8,-3.5
2023/01/26 17:50:00,131.4,-3.7
2023/01/26 18:00:00,131.5,-3.8
2023/01/26 18:10:00,131.5,-3.8
2023/01/26 18:20:00,131.6,-3.9
2023/01/26 18:30:00,131.5,-3.9
2023/01/26 18:40:00,131.3,-4.0
2023/01/26 18:50:00,131.2,-4.1
2023/01/26 19:00:00,131.1,-3.9
2023/01/26 19:10:00,131.1,-3.9
2023/01/26 19:20:00,131.0,-3.7
2023/01/26 19:30:00,130.7,-3.9
2023/01/26 19:40:00,130.4,-4.2
2023/01/26 19:50:00,130.2,-3.9
2023/01/26 20:00:00,130.2,-3.7
2023/01/26 20:10:00,130.1,-3.9
2023/01/26 20:20:00,130.1,-3.9
2023/01/26 20:30:00,130.2,-3.6
2023/01/26 20:40:00,130.1,-3.7
2023/01/26 20:50:00,130.0,-3.9
2023/01/26 21:00:00,129.9,-3.9
2023/01/26 21:10:00,129.7,-3.8
2023/01/26 21:20:00,129.6,-3.5
2023/01/26 21:30:00,129.4,-4.1
2023/01/26 21:40:00,129.2,-4.0
2023/01/26 21:50:00,129.1,-3.9
2023/01/26 22:00:00,129.3,-3.9
2023/01/26 22:10:00,129.2,-3.9
2023/01/26 22:20:00,129.1,-4.0
2023/01/26 22:30:00,129.0,-3.5
2023/01/26 22:40:00,128.8,-4.2
2023/01/26 22:50:00,128.5,-4.2
2023/01/26 23:00:00,128.4,-4.3
2023/01/26 23:10:00,128.2,-4.4
2023/01/26 23:20:00,128.2,-3.9
2023/01/26 23:30:00,128.1,-4.3
2023/01/26 23:40:00,127.9,-4.6
2023/01/26 23:50:00,127.9,-4.3
